Location: Newark
(7.1028°S, 35.3258°W)
Time: 13:34:38
(UTC+00:00)

Vanguard 3 - Pass Details

Date: 26 February 2020
Orbit: 508 x 3263 km, 33.4° (Epoch: 04 April)

Event Time Altitude Azimuth Distance (km) Brightness Sun altitude
Rises 04:34:40 0° 228° (SW) 5,348 - -56.0°
Reaches altitude 10° 04:39:14 10° 221° (SW) 3,847 - -55.0°
Maximum altitude 04:47:31 37° 157° (SSE) 1,583 - -53.1°
Drops below altitude 10° 04:52:34 10° 89° (E) 2,325 - -52.0°
Sets 04:54:40 0° 80° (E) 3,040 - -51.5°
